Weather History for KBKD - January, 2014

Change the Weather History Date:

Friday, January 3, 2014

  Actual Average (KABI) Record (KABI)
Temperature  
Mean Temperature 44 °F 44 °F  
Max Temperature 60 °F 56 °F 86 °F (2006)
Min Temperature 29 °F 33 °F 0 °F (1947)
Degree Days  
Heating Degree Days 20 21  
Month to date heating degree days 63  
Since 1 July heating degree days 1108  
Cooling Degree Days 0 0  
Month to date cooling degree days 0  
Year to date cooling degree days 0  
Moisture  
Dew Point 18 °F    
Average Humidity 40    
Maximum Humidity 65    
Minimum Humidity 20    
Precipitation  
Precipitation 0.00 in 0.04 in 0.46 in (1952)
Month to date precipitation 0.10  
Year to date precipitation 0.10  
Sea Level Pressure  
Sea Level Pressure 30.18 in    
Wind  
Wind Speed 13 mph (South)    
Max Wind Speed 25 mph    
Max Gust Speed 33 mph    
Visibility 10 miles    
Events      
T = Trace of Precipitation, MM = Missing Value Source: NWS Daily Summary

Daily Weather History Graph

Daily Weather History Graph

Search for Another Location

Airport or City:

Trip Planner

Search our weather history database for the weather conditions in past years. The results will help you decide how hot, cold, wet, or windy it might be!

Date:

Astronomy

Jan. 03, 2014 Rise Set
Actual Time 7:38 AM CST 5:42 PM CST
Civil Twilight 7:11 AM CST 6:09 PM CST
Nautical Twilight 6:40 AM CST 6:39 PM CST
Astronomical Twilight 6:10 AM CST 7:09 PM CST
Moon 9:14 AM CST (1/3) 8:42 PM CST (1/3)
Length of Visible Light 10h 58m
Length of Day
10h 03m
Waxing Crescent, 8% of the Moon is Illuminated
Jan 3
Waxing Crescent
Jan 7
First Quarter
Jan 15
Full
Jan 23
Last Quarter
Jan 30
New

Hourly Weather History & Observations

Time (CST) Temp. Windchill Dew Point Humidity Pressure Visibility Wind Dir Wind Speed Gust Speed Precip Events Conditions
12:15 AM 29.3 °F 22.3 °F 18.5 °F 64% 30.39 in 10.0 mi SE 6.9 mph - N/A   Clear
12:35 AM 29.3 °F 21.5 °F 18.5 °F 64% 30.39 in 10.0 mi SSE 8.1 mph - N/A   Clear
12:55 AM 30.9 °F 22.2 °F 18.5 °F 60% 30.39 in 10.0 mi SSE 10.4 mph - N/A   Clear
1:15 AM 31.1 °F 22.4 °F 18.5 °F 60% 30.38 in 10.0 mi SE 10.4 mph - N/A   Clear
1:35 AM 30.4 °F 21.5 °F 18.5 °F 61% 30.38 in 10.0 mi SSE 10.4 mph - N/A   Clear
1:55 AM 30.4 °F 21.5 °F 18.3 °F 61% 30.38 in 10.0 mi SSE 10.4 mph - N/A   Clear
2:15 AM 30.6 °F 21.8 °F 18.5 °F 61% 30.37 in 10.0 mi SSE 10.4 mph - N/A   Clear
2:35 AM 30.4 °F 22.2 °F 18.7 °F 62% 30.37 in 10.0 mi SSE 9.2 mph - N/A   Clear
2:55 AM 30.7 °F 22.0 °F 19.0 °F 62% 30.37 in 10.0 mi SSE 10.4 mph - N/A   Clear
3:15 AM 31.1 °F 21.4 °F 19.4 °F 62% 30.37 in 10.0 mi SSE 12.7 mph - N/A   Clear
3:35 AM 31.1 °F 21.4 °F 19.2 °F 61% 30.37 in 10.0 mi SSE 12.7 mph - N/A   Clear
3:55 AM 30.7 °F 22.0 °F 19.4 °F 63% 30.36 in 10.0 mi SSE 10.4 mph - N/A   Clear
4:15 AM 31.5 °F 22.3 °F 19.9 °F 62% 30.35 in 10.0 mi SSE 11.5 mph - N/A   Clear
4:35 AM 31.8 °F 23.3 °F 19.4 °F 60% 30.35 in 10.0 mi SSE 10.4 mph - N/A   Clear
4:55 AM 31.3 °F 22.7 °F 19.8 °F 62% 30.34 in 10.0 mi SSE 10.4 mph - N/A   Clear
5:15 AM 31.5 °F 22.3 °F 19.9 °F 62% 30.34 in 10.0 mi SSE 11.5 mph - N/A   Clear
5:35 AM 31.3 °F 22.1 °F 19.4 °F 61% 30.33 in 10.0 mi SSE 11.5 mph - N/A   Clear
5:55 AM 30.9 °F 22.2 °F 19.4 °F 62% 30.33 in 10.0 mi SSE 10.4 mph - N/A   Clear
6:15 AM 30.9 °F 22.8 °F 19.4 °F 62% 30.32 in 10.0 mi SE 9.2 mph - N/A   Clear
6:35 AM 30.2 °F 25.4 °F 19.4 °F 64% 30.32 in 10.0 mi SSE 4.6 mph - N/A   Clear
6:55 AM 29.8 °F 24.9 °F 19.2 °F 65% 30.32 in 10.0 mi SSE 4.6 mph - N/A   Clear
7:15 AM 30.7 °F 24.1 °F 19.9 °F 64% 30.32 in 10.0 mi SSE 6.9 mph - N/A   Clear
7:35 AM 31.8 °F 23.3 °F 20.1 °F 62% 30.31 in 10.0 mi South 10.4 mph - N/A   Clear
7:55 AM 32.2 °F 23.8 °F 20.1 °F 61% 30.31 in 10.0 mi SSE 10.4 mph 18.4 mph N/A   Clear
8:15 AM 33.6 °F 23.7 °F 20.3 °F 58% 30.30 in 10.0 mi SSE 15.0 mph 19.6 mph N/A   Clear
8:35 AM 34.5 °F 24.5 °F 20.1 °F 56% 30.30 in 10.0 mi SSE 16.1 mph 21.9 mph N/A   Clear
8:55 AM 35.8 °F 27.3 °F 20.3 °F 53% 30.30 in 10.0 mi SSE 12.7 mph 20.7 mph N/A   Clear
9:15 AM 38.8 °F 31.2 °F 20.5 °F 48% 30.30 in 10.0 mi South 12.7 mph 19.6 mph N/A   Clear
9:35 AM 41.4 °F 33.6 °F 20.7 °F 44% 30.31 in 10.0 mi South 15.0 mph - N/A   Clear
9:55 AM 42.3 °F 34.1 °F 19.9 °F 41% 30.31 in 10.0 mi South 17.3 mph 25.3 mph N/A   Clear
10:15 AM 43.9 °F 36.5 °F 19.0 °F 37% 30.30 in 10.0 mi SSE 16.1 mph 24.2 mph N/A   Clear
10:35 AM 44.1 °F 36.8 °F 17.6 °F 35% 30.29 in 10.0 mi South 16.1 mph 23.0 mph N/A   Clear
10:55 AM 46.2 °F 39.0 °F 18.1 °F 33% 30.28 in 10.0 mi South 18.4 mph 25.3 mph N/A   Clear
11:15 AM 48.4 °F - 18.9 °F 31% 30.26 in 10.0 mi South 13.8 mph 25.3 mph N/A   Clear
11:35 AM 50.7 °F - 19.4 °F 29% 30.24 in 10.0 mi South 18.4 mph 26.5 mph N/A   Clear
11:55 AM 52.7 °F - 18.3 °F 26% 30.22 in 10.0 mi South 24.2 mph 33.4 mph N/A   Clear
12:15 PM 53.6 °F - 18.3 °F 25% 30.20 in 10.0 mi South 21.9 mph 29.9 mph N/A   Clear
12:35 PM 54.0 °F - 18.7 °F 25% 30.18 in 10.0 mi SSW 21.9 mph 32.2 mph N/A   Clear
12:55 PM 54.7 °F - 18.5 °F 24% 30.16 in 10.0 mi South 20.7 mph 27.6 mph N/A   Clear
1:15 PM 55.6 °F - 18.7 °F 24% 30.15 in 10.0 mi South 15.0 mph 28.8 mph N/A   Clear
1:35 PM 56.5 °F - 18.7 °F 23% 30.12 in 10.0 mi South 21.9 mph 26.5 mph N/A   Clear
1:55 PM 58.5 °F - 19.2 °F 22% 30.11 in 10.0 mi South 17.3 mph 24.2 mph N/A   Clear
2:15 PM 59.0 °F - 19.0 °F 21% 30.10 in 10.0 mi South 19.6 mph 27.6 mph N/A   Clear
2:35 PM 58.6 °F - 19.4 °F 22% 30.08 in 10.0 mi South 16.1 mph 27.6 mph N/A   Clear
2:55 PM 60.1 °F - 18.7 °F 20% 30.08 in 10.0 mi South 23.0 mph 28.8 mph N/A   Clear
3:15 PM 59.5 °F - 18.5 °F 20% 30.07 in 10.0 mi South 19.6 mph 27.6 mph N/A   Clear
3:35 PM 59.0 °F - 18.3 °F 21% 30.06 in 10.0 mi South 20.7 mph 28.8 mph N/A   Clear
3:55 PM 58.5 °F - 18.5 °F 21% 30.06 in 10.0 mi South 21.9 mph 28.8 mph N/A   Clear
4:15 PM 58.3 °F - 18.9 °F 22% 30.05 in 10.0 mi South 15.0 mph 24.2 mph N/A   Clear
4:35 PM 57.4 °F - 18.3 °F 22% 30.04 in 10.0 mi South 19.6 mph 25.3 mph N/A   Clear
4:55 PM 57.2 °F - 18.0 °F 22% 30.03 in 10.0 mi South 20.7 mph 29.9 mph N/A   Clear
5:15 PM 56.7 °F - 16.9 °F 21% 30.03 in 10.0 mi South 18.4 mph 25.3 mph N/A   Clear
5:35 PM 55.4 °F - 17.1 °F 22% 30.01 in 10.0 mi South 15.0 mph 20.7 mph N/A   Clear
5:55 PM 54.5 °F - 16.7 °F 23% 30.01 in 10.0 mi SSE 12.7 mph 20.7 mph N/A   Clear
6:15 PM 54.0 °F - 16.7 °F 23% 30.01 in 10.0 mi South 15.0 mph 23.0 mph N/A   Clear
6:35 PM 53.4 °F - 16.5 °F 23% 30.00 in 10.0 mi South 16.1 mph 23.0 mph N/A   Clear
6:55 PM 52.7 °F - 16.2 °F 24% 30.00 in 10.0 mi South 13.8 mph 21.9 mph N/A   Clear
7:15 PM 52.0 °F - 15.8 °F 24% 29.99 in 10.0 mi South 15.0 mph 21.9 mph N/A   Clear
7:35 PM 51.3 °F - 15.6 °F 24% 29.99 in 10.0 mi South 12.7 mph 20.7 mph N/A   Clear
7:55 PM 50.7 °F - 15.4 °F 25% 29.99 in 10.0 mi South 15.0 mph 23.0 mph N/A   Clear
8:15 PM 50.4 °F - 14.9 °F 24% 29.99 in 10.0 mi South 15.0 mph 23.0 mph N/A   Clear
8:35 PM 50.0 °F - 14.7 °F 25% 29.99 in 10.0 mi South 18.4 mph 23.0 mph N/A   Clear
8:55 PM 50.0 °F - 14.0 °F 24% 29.98 in 10.0 mi South 21.9 mph 28.8 mph N/A   Clear
9:15 PM 49.8 °F - 14.2 °F 24% 29.98 in 10.0 mi South 21.9 mph 28.8 mph N/A   Clear
9:35 PM 49.1 °F - 14.9 °F 26% 29.97 in 10.0 mi South 20.7 mph 28.8 mph N/A   Clear
9:55 PM 48.6 °F - 14.9 °F 26% 29.96 in 10.0 mi South 18.4 mph 29.9 mph N/A   Clear
10:15 PM 48.0 °F - 15.3 °F 27% 29.96 in 10.0 mi South 23.0 mph 29.9 mph N/A   Clear
10:35 PM 48.2 °F - 15.6 °F 27% 29.96 in 10.0 mi SSW 20.7 mph 33.4 mph N/A   Clear
10:55 PM 48.0 °F - 17.1 °F 29% 29.95 in 10.0 mi SSW 25.3 mph 31.1 mph N/A   Clear
11:15 PM 47.5 °F - 18.9 °F 32% 29.95 in 10.0 mi SSW 21.9 mph 32.2 mph N/A   Clear
11:35 PM 47.3 °F - 20.3 °F 34% 29.95 in 10.0 mi SSW 18.4 mph 29.9 mph N/A   Clear
11:55 PM 46.9 °F - 21.6 °F 37% 29.94 in 10.0 mi SSW 20.7 mph 29.9 mph N/A   Clear